Address 0x7b005cf5cb7a3222fda9df1c344848ddf45a64b0 12

 
Txn Hash Method
Block
From
To
Value [Txn Fee]
0x18bd64e40e684991af4fd832b7a56b0f55231c2d7049d729ff789576c7f1fad9Deposit Vesting2018667302024-04-17 6:18:522 days 1 hr ago0x7b005cf5cb7a3222fda9df1c344848ddf45a64b0OUT 0xddaecf4b02a3e45b96fc2d7339c997e072b0d0340 ETH0.00000322 0.01
0x0f08c75dc1161fce0218905b96e9f412f9248a5cdaee6d0dc433f91e5785e7d5Withdraw Tokens2018658402024-04-17 6:15:052 days 1 hr ago0x7b005cf5cb7a3222fda9df1c344848ddf45a64b0OUT 0x10d87d01d7ec710fe54efdcb81e5928602951df70 ETH0.00000122 0.01
0x90d34331adc05f921b65d8f5a7b59447df67171982fc46b818defc6cf5fdfbd2Withdraw Tokens2015427132024-04-16 7:23:523 days 48 mins ago0x7b005cf5cb7a3222fda9df1c344848ddf45a64b0OUT 0x10d87d01d7ec710fe54efdcb81e5928602951df70 ETH0.00000117 0.01
0x46762b3be56456f254f2c0f5169bf2cf7f79800535749bb02a0d50788c055dd7Withdraw Tokens2011774812024-04-15 5:43:344 days 2 hrs ago0x7b005cf5cb7a3222fda9df1c344848ddf45a64b0OUT 0x10d87d01d7ec710fe54efdcb81e5928602951df70 ETH0.0000013 0.01
0x1cbabcf49a0e1f2012d27e75513e9350dcc59f152222779a53a93abea7c3c0acWithdraw Tokens1989647702024-04-08 18:48:4910 days 13 hrs ago0x7b005cf5cb7a3222fda9df1c344848ddf45a64b0OUT 0x6ed34c4d56b82a76e6540b7cc2d35000873e1dd60 ETH0.00000181 0.01
0xcbb8d5ac5dd4bb88424d5041f4fdbe03b2ca3d496285d3ff23b36ab1b14f37b6Withdraw Tokens1983220902024-04-06 22:02:2512 days 10 hrs ago0x7b005cf5cb7a3222fda9df1c344848ddf45a64b0OUT 0x6ed34c4d56b82a76e6540b7cc2d35000873e1dd60 ETH0.00000115 0.01
0x83ff52e3ef31ab87d88c435377c3730c2fedf2522e7c69e289ab8dc76be54f78Deposit Vesting1975753862024-04-04 17:55:2014 days 14 hrs ago0x7b005cf5cb7a3222fda9df1c344848ddf45a64b0OUT 0xddaecf4b02a3e45b96fc2d7339c997e072b0d0340 ETH0.00000433 0.01
0x48458ef7243a3d8c7b9603857c5dabc597416d2d5c60e0bb2ea7a7e7c676e9dfWithdraw Tokens1975748522024-04-04 17:53:0614 days 14 hrs ago0x7b005cf5cb7a3222fda9df1c344848ddf45a64b0OUT 0x6ed34c4d56b82a76e6540b7cc2d35000873e1dd60 ETH0.00000193 0.010136
0x7a373a7c52d778d785dd6dc8875e992cf69aae52d33c29ab9e0248dcc04b17d1Withdraw Tokens1974151472024-04-04 6:46:3415 days 1 hr ago0x7b005cf5cb7a3222fda9df1c344848ddf45a64b0OUT 0x6ed34c4d56b82a76e6540b7cc2d35000873e1dd60 ETH0.00000124 0.01
0x37950a2640e45a42e57f08d680ec4134f1f25c4114f3c8413f731a6783f9fb2dWithdraw Tokens1961897742024-03-31 17:07:5718 days 15 hrs ago0x7b005cf5cb7a3222fda9df1c344848ddf45a64b0OUT 0x6ed34c4d56b82a76e6540b7cc2d35000873e1dd60 ETH0.00000377 0.01
0x17016e5816a1e2b3fd25f059997d5021f9c0ec624054d74b3363dbca62d9b98eWithdraw Tokens1957525892024-03-30 10:40:1919 days 21 hrs ago0x7b005cf5cb7a3222fda9df1c344848ddf45a64b0OUT 0x6ed34c4d56b82a76e6540b7cc2d35000873e1dd60 ETH0.00000221 0.01
0xebda0f6e937cc285f7cfa892edd376481088837652b8d7dc7f2e041e166b63c4Withdraw Tokens1951599652024-03-28 17:17:0821 days 14 hrs ago0x7b005cf5cb7a3222fda9df1c344848ddf45a64b0OUT 0x6ed34c4d56b82a76e6540b7cc2d35000873e1dd60 ETH0.00000671 0.01
0x51595cd69c6c81c5a0853a5761c6372f9013e116a6263e541dcd2f7e64ad63a0Withdraw Tokens1947834212024-03-27 15:02:1122 days 17 hrs ago0x7b005cf5cb7a3222fda9df1c344848ddf45a64b0OUT 0x6ed34c4d56b82a76e6540b7cc2d35000873e1dd60 ETH0.00000276 0.019906
0x8add7e949beb232a7b5803c700cf49f5323e21dc09f87a951c8b8b5356f312ccDeposit Vesting1944446472024-03-26 15:26:1023 days 16 hrs ago0x7b005cf5cb7a3222fda9df1c344848ddf45a64b0OUT 0xddaecf4b02a3e45b96fc2d7339c997e072b0d0340 ETH0.00000451 0.01
0x6dbc654a61f73aa8cc014df4cbb2515a66ac91849bde9284a9119633b0fc6c4eWithdraw Tokens1944441232024-03-26 15:23:5923 days 16 hrs ago0x7b005cf5cb7a3222fda9df1c344848ddf45a64b0OUT 0x6ed34c4d56b82a76e6540b7cc2d35000873e1dd60 ETH0.00000203 0.01
0x886f44a5535a6d081cf2fea0095ba4d3c3d6cc39ec7bc7fc1c150fb9f56d715bWithdraw Tokens1941323902024-03-25 17:44:4024 days 14 hrs ago0x7b005cf5cb7a3222fda9df1c344848ddf45a64b0OUT 0x6ed34c4d56b82a76e6540b7cc2d35000873e1dd60 ETH0.00000173 0.01
0x1c47cf741800966c1f91835e4d97706ff1ab6126592c7c162bab0cc845052c69Withdraw Tokens1934661492024-03-23 19:21:5426 days 12 hrs ago0x7b005cf5cb7a3222fda9df1c344848ddf45a64b0OUT 0x6ed34c4d56b82a76e6540b7cc2d35000873e1dd60 ETH0.00000135 0.01
0x7acb1538049470623fccee60fa66cd976f7f7ead5c3ad4781cb57497062acdbdWithdraw Tokens1922826902024-03-20 8:52:1029 days 23 hrs ago0x7b005cf5cb7a3222fda9df1c344848ddf45a64b0OUT 0x6ed34c4d56b82a76e6540b7cc2d35000873e1dd60 ETH0.00000375 0.032081
0xf768383542fcc0ed530e3613c93ca5f7098949ab57eb9433d0198e18da27ed97Deposit Vesting1914102172024-03-17 19:44:4932 days 12 hrs ago0x7b005cf5cb7a3222fda9df1c344848ddf45a64b0OUT 0xddaecf4b02a3e45b96fc2d7339c997e072b0d0340 ETH0.00003569 0.1
0xa5dce7c4b3fbb277112886ce8a7b365d69e5f2789c670467e25b2c08166156b2Withdraw Tokens1914099072024-03-17 19:43:2932 days 12 hrs ago0x7b005cf5cb7a3222fda9df1c344848ddf45a64b0OUT 0x6ed34c4d56b82a76e6540b7cc2d35000873e1dd60 ETH0.00001425 0.1
0x67b4a7759bc7450c3d1abdbe46a1dd11673661c8b340e193ef3d5094b5d0995cWithdraw Tokens1903376302024-03-14 16:18:0735 days 15 hrs ago0x7b005cf5cb7a3222fda9df1c344848ddf45a64b0OUT 0x6ed34c4d56b82a76e6540b7cc2d35000873e1dd60 ETH0.00000964 0.1
0xe07670e7c2aa0608a7e92fc73c7918b0e12eea24b9b79969f6993e3486257310Transfer1903372112024-03-14 16:16:2235 days 15 hrs ago0x7b005cf5cb7a3222fda9df1c344848ddf45a64b0OUT0x6b60dd3f9a6690b5a39a9b655719cf7454316b050.00005 ETH0.00000255 0.12172
0x4f95303ec3a32fefad3e8e848b9e51ff5cecb8ff6361fc11346bdd7620d0e51fTransfer1903369542024-03-14 16:15:1835 days 15 hrs ago0x6b60dd3f9a6690b5a39a9b655719cf7454316b05 IN 0x7b005cf5cb7a3222fda9df1c344848ddf45a64b00.000775272451031 ETH0.00000253 0.12077
0xae7cf203f6e765c92f3d4ad24abd9d8efbfd4e2c5086580aae7cee8265dc4a73Deposit Vesting1884296582024-03-08 19:50:2741 days 12 hrs ago0x7b005cf5cb7a3222fda9df1c344848ddf45a64b0OUT 0xddaecf4b02a3e45b96fc2d7339c997e072b0d0340 ETH0.00014564 0.1
0x28a10756baeb079ff4342ab3554ee4e7d85eff8d52a262b6482d3304b2ebd09fWithdraw Tokens1884295362024-03-08 19:49:5041 days 12 hrs ago0x7b005cf5cb7a3222fda9df1c344848ddf45a64b0OUT 0x6ed34c4d56b82a76e6540b7cc2d35000873e1dd60 ETH0.00008514 0.1
[ Download CSV Export 
Latest 3 internal transactions
Parent Txn Hash Block From To Value
0x51a5b64e42cc1655c6bb0f34e52c04405463f9e3efe02ae09125f4b78931533b1655749862023-12-31 8:46:41109 days 23 hrs ago Uniswap: Universal Router V1 20x7b005cf5cb7a3222fda9df1c344848ddf45a64b00.002178526916924945 ETH
0x2395360cd6e50ce1ee0936cc8ee186d6acd4bdbb327961c977259a65be6e57081463125762023-11-02 7:42:30169 days 29 mins ago Uniswap: Universal Router V1 20x7b005cf5cb7a3222fda9df1c344848ddf45a64b00.016303419850457814 ETH
0x029d096db043dd0b6e89a57d78183173f1fcf83dc7e0f2d3a0fc2b3f8a3d25951261389952023-08-29 17:06:31233 days 15 hrs ago Paraswap v5: Augustus Swapper0x7b005cf5cb7a3222fda9df1c344848ddf45a64b00.026500968647348791 ETH
[ Download CSV Export 
Loading

Contract Name:
0 ETH

Compiler Version
0

Optimization Enabled:
0 ETH

Other Settings:
-NA-
Block Transaction Gas Used Reward
Age Block Fee Address BC Fee Address Voting Power Jailed Incoming
Block Uncle Number Difficulty Gas Used Reward
Loading
Make sure to use the "Vote Down" button for any spammy posts, and the "Vote Up" for interesting conversations.